• In Russia
  • List of Countries
  • For 7 days
  • Water Temperature
  • Satellite Maps
  • Weather Map
  • Weather Widgets
  • user-avatar
    Login

    Hourly Weather Balho

    Today, 25 June, Tuesday

    Time Temperature Precipitation Wind Pressure Humidity
    00:00 +35°C° 0 mm 1 mps 732 mmHg 45%
    01:00 +34°C° 0 mm 1 mps 731 mmHg 45%
    02:00 +34°C° 0 mm 1 mps 731 mmHg 46%
    03:00 +34°C° 0 mm 1 mps 731 mmHg 46%
    04:00 +34°C° 0 mm 1 mps 731 mmHg 48%
    05:00 +33°C° 0 mm 1 mps 732 mmHg 50%
    06:00 +33°C° 0 mm 1 mps 732 mmHg 52%
    07:00 +34°C° 0 mm 1 mps 733 mmHg 48%
    08:00 +35°C° 0 mm 1 mps 733 mmHg 43%
    09:00 +37°C° 0 mm 1 mps 733 mmHg 38%
    10:00 +39°C° 0 mm 1 mps 733 mmHg 33%
    11:00 +41°C° 0 mm 1 mps 732 mmHg 27%
    12:00 +42°C° 0 mm 1 mps 732 mmHg 22%
    13:00 +43°C° 0 mm 1 mps 732 mmHg 19%
    14:00 +45°C° 0 mm 2 mps 731 mmHg 17%
    15:00 +46°C° 0 mm 2 mps 730 mmHg 14%
    16:00 +46°C° 0 mm 3 mps 730 mmHg 14%
    17:00 +47°C° 0 mm 4 mps 730 mmHg 14%
    18:00 +47°C° 0 mm 5 mps 730 mmHg 14%
    19:00 +45°C° 0 mm 5 mps 731 mmHg 16%
    20:00 +43°C° 0 mm 5 mps 731 mmHg 18%
    21:00 +41°C° 0 mm 5 mps 731 mmHg 20%
    22:00 +40°C° 0 mm 4 mps 732 mmHg 23%
    23:00 +38°C° 0 mm 3 mps 732 mmHg 25%

    Tomorrow, 26 June, Wednesday

    Time Temperature Precipitation Wind Pressure Humidity
    00:00 +37°C° 0 mm 1 mps 732 mmHg 28%
    01:00 +36°C° 0 mm 1 mps 732 mmHg 29%
    02:00 +35°C° 0 mm 1 mps 731 mmHg 31%
    03:00 +35°C° 0 mm 1 mps 731 mmHg 33%
    04:00 +34°C° 0 mm 1 mps 731 mmHg 35%
    05:00 +32°C° 0 mm 0 mps 732 mmHg 37%
    06:00 +31°C° 0 mm 0 mps 732 mmHg 39%
    07:00 +35°C° 0 mm 1 mps 732 mmHg 35%
    08:00 +37°C° 0 mm 1 mps 733 mmHg 31%
    09:00 +39°C° 0 mm 2 mps 733 mmHg 27%
    10:00 +41°C° 0 mm 1 mps 733 mmHg 24%
    11:00 +42°C° 0 mm 1 mps 733 mmHg 21%
    12:00 +44°C° 0 mm 1 mps 732 mmHg 18%
    13:00 +46°C° 0 mm 2 mps 731 mmHg 17%
    14:00 +46°C° 0 mm 2 mps 731 mmHg 16%
    15:00 +47°C° 0 mm 2 mps 730 mmHg 14%
    16:00 +47°C° 0 mm 3 mps 730 mmHg 15%
    17:00 +47°C° 0 mm 4 mps 729 mmHg 15%
    18:00 +47°C° 0 mm 5 mps 729 mmHg 16%
    19:00 +44°C° 0 mm 4 mps 730 mmHg 18%
    20:00 +42°C° 0 mm 3 mps 730 mmHg 21%
    21:00 +40°C° 0 mm 2 mps 730 mmHg 23%
    22:00 +39°C° 0 mm 1 mps 730 mmHg 23%
    23:00 +39°C° 0 mm 1 mps 730 mmHg 23%

    Day after tomorrow, 27 June, Thursday

    Time Temperature Precipitation Wind Pressure Humidity
    00:00 +37°C° 0 mm 1 mps 730 mmHg 22%
    01:00 +37°C° 0 mm 1 mps 730 mmHg 22%
    02:00 +36°C° 0 mm 1 mps 729 mmHg 22%
    03:00 +36°C° 0 mm 1 mps 729 mmHg 22%
    04:00 +36°C° 0 mm 1 mps 729 mmHg 22%
    05:00 +36°C° 0 mm 1 mps 729 mmHg 22%
    06:00 +35°C° 0 mm 1 mps 730 mmHg 21%
    07:00 +37°C° 0 mm 1 mps 730 mmHg 19%
    08:00 +40°C° 0 mm 2 mps 731 mmHg 17%
    09:00 +41°C° 0 mm 2 mps 731 mmHg 15%
    10:00 +44°C° 0 mm 3 mps 731 mmHg 14%
    11:00 +45°C° 0 mm 3 mps 730 mmHg 12%
    12:00 +48°C° 0 mm 4 mps 730 mmHg 11%
    13:00 +48°C° 0 mm 4 mps 729 mmHg 10%
    14:00 +49°C° 0 mm 5 mps 728 mmHg 10%
    15:00 +50°C° 0 mm 5 mps 727 mmHg 10%
    16:00 +49°C° 0 mm 6 mps 727 mmHg 10%
    17:00 +49°C° 0 mm 6 mps 727 mmHg 10%
    18:00 +49°C° 0 mm 7 mps 727 mmHg 10%
    19:00 +46°C° 0 mm 6 mps 728 mmHg 14%
    20:00 +44°C° 0 mm 6 mps 728 mmHg 18%
    21:00 +40°C° 0 mm 5 mps 728 mmHg 21%
    22:00 +40°C° 0 mm 4 mps 728 mmHg 22%
    23:00 +38°C° 0 mm 3 mps 728 mmHg 22%

    28 June, Friday

    Time Temperature Precipitation Wind Pressure Humidity
    00:00 +38°C° 0 mm 3 mps 728 mmHg 22%
    01:00 +38°C° 0 mm 2 mps 728 mmHg 23%
    02:00 +37°C° 0 mm 2 mps 728 mmHg 24%
    03:00 +37°C° 0 mm 2 mps 728 mmHg 25%
    04:00 +36°C° 0 mm 1 mps 728 mmHg 25%
    05:00 +35°C° 0 mm 1 mps 728 mmHg 26%
    06:00 +35°C° 0 mm 1 mps 729 mmHg 26%
    07:00 +36°C° 0 mm 1 mps 729 mmHg 23%
    08:00 +39°C° 0 mm 2 mps 730 mmHg 21%
    09:00 +42°C° 0 mm 3 mps 730 mmHg 18%
    10:00 +43°C° 0 mm 3 mps 730 mmHg 17%
    11:00 +45°C° 0 mm 3 mps 729 mmHg 15%
    12:00 +46°C° 0 mm 3 mps 729 mmHg 13%
    13:00 +48°C° 0 mm 4 mps 728 mmHg 12%
    14:00 +49°C° 0 mm 6 mps 728 mmHg 11%
    15:00 +51°C° 0 mm 7 mps 727 mmHg 10%
    16:00 +50°C° 0 mm 8 mps 727 mmHg 12%
    17:00 +49°C° 0 mm 9 mps 727 mmHg 13%
    18:00 +47°C° 0 mm 10 mps 727 mmHg 15%
    19:00 +45°C° 0 mm 9 mps 727 mmHg 20%
    20:00 +43°C° 0 mm 7 mps 728 mmHg 25%
    21:00 +40°C° 0 mm 6 mps 729 mmHg 30%
    22:00 +38°C° 0 mm 4 mps 729 mmHg 31%
    23:00 +38°C° 0 mm 3 mps 729 mmHg 32%

    29 June, Saturday

    Time Temperature Precipitation Wind Pressure Humidity
    00:00 +38°C° 0 mm 2 mps 730 mmHg 33%
    01:00 +37°C° 0 mm 2 mps 729 mmHg 35%
    02:00 +36°C° 0 mm 1 mps 729 mmHg 37%
    03:00 +35°C° 0 mm 1 mps 729 mmHg 38%
    04:00 +35°C° 0 mm 1 mps 729 mmHg 38%
    05:00 +35°C° 0 mm 1 mps 730 mmHg 39%
    06:00 +36°C° 0 mm 2 mps 730 mmHg 39%
    07:00 +37°C° 0 mm 2 mps 730 mmHg 35%
    08:00 +38°C° 0 mm 2 mps 731 mmHg 32%
    09:00 +40°C° 0 mm 3 mps 731 mmHg 29%
    10:00 +41°C° 0 mm 2 mps 731 mmHg 26%
    11:00 +42°C° 0 mm 2 mps 730 mmHg 23%
    12:00 +43°C° 0 mm 1 mps 730 mmHg 21%
    13:00 +46°C° 0 mm 2 mps 730 mmHg 19%
    14:00 +47°C° 0 mm 3 mps 729 mmHg 17%
    15:00 +49°C° 0 mm 4 mps 728 mmHg 15%
    16:00 +47°C° 0 mm 6 mps 728 mmHg 18%
    17:00 +46°C° 0 mm 7 mps 728 mmHg 21%
    18:00 +45°C° 0 mm 9 mps 728 mmHg 23%
    19:00 +43°C° 0 mm 7 mps 729 mmHg 27%
    20:00 +41°C° 0 mm 6 mps 730 mmHg 31%
    21:00 +38°C° 0 mm 4 mps 730 mmHg 35%
    22:00 +38°C° 0 mm 4 mps 730 mmHg 35%
    23:00 +38°C° 0 mm 4 mps 730 mmHg 36%

    30 June, Sunday

    Time Temperature Precipitation Wind Pressure Humidity
    00:00 +38°C° 0 mm 4 mps 731 mmHg 36%
    01:00 +37°C° 0 mm 3 mps 730 mmHg 37%
    02:00 +37°C° 0 mm 2 mps 730 mmHg 38%
    03:00 +36°C° 0 mm 1 mps 730 mmHg 39%
    04:00 +35°C° 0 mm 1 mps 730 mmHg 40%
    05:00 +35°C° 0 mm 1 mps 731 mmHg 42%
    06:00 +34°C° 0 mm 1 mps 731 mmHg 43%
    07:00 +36°C° 0 mm 2 mps 732 mmHg 40%
    08:00 +37°C° 0 mm 2 mps 732 mmHg 37%
    09:00 +38°C° 0 mm 3 mps 732 mmHg 34%
    10:00 +40°C° 0 mm 3 mps 732 mmHg 31%
    11:00 +41°C° 0 mm 2 mps 732 mmHg 28%
    12:00 +43°C° 0 mm 2 mps 731 mmHg 25%
    13:00 +45°C° 0 mm 3 mps 730 mmHg 23%
    14:00 +47°C° 0 mm 4 mps 730 mmHg 21%
    15:00 +48°C° 0 mm 5 mps 729 mmHg 19%
    16:00 +47°C° 0.1 mm 6 mps 729 mmHg 21%
    17:00 +46°C° 0.1 mm 7 mps 729 mmHg 23%
    18:00 +45°C° 0.1 mm 7 mps 728 mmHg 25%
    19:00 +44°C° 0.2 mm 6 mps 729 mmHg 27%
    20:00 +42°C° 0.2 mm 5 mps 730 mmHg 30%
    21:00 +41°C° 0.2 mm 4 mps 731 mmHg 32%
    22:00 +39°C° 0 mm 3 mps 731 mmHg 34%
    23:00 +38°C° 0 mm 3 mps 731 mmHg 35%
    Show more